Montreal, Quebec

5:24 PM EDT on April 27, 2017 (GMT -0400)
Montreal-Pierre Elliott Trudeau Int'l Airport

Weather History for CYUL - November, 2011

Change the Weather History Date:

Sunday, November 13, 2011

  Actual Average Record
Temperature  
Mean Temperature 45 °F -  
Max Temperature 55 °F 35 °F 57 °F (2005)
Min Temperature 35 °F 21 °F 17 °F (1996)
Degree Days  
Heating Degree Days 20    
Moisture  
Dew Point 35 °F    
Average Humidity 62    
Maximum Humidity 81    
Minimum Humidity 41    
Precipitation  
Precipitation 0.02 in 0.12 in - ()
Sea Level Pressure  
Sea Level Pressure 29.85 in    
Wind  
Wind Speed 7 mph ()    
Max Wind Speed 14 mph    
Max Gust Speed -    
Visibility 15.0 miles    
Events      
Averages and records for this station are not official NWS values.
T = Trace of Precipitation, MM = Missing Value Source: Averaged Metar Reports

Daily Weather History Graph

Daily Weather History Graph

Search for Another Location

Airport or City:

Trip Planner

Search our weather history database for the weather conditions in past years. The results will help you decide how hot, cold, wet, or windy it might be!

Date:

Astronomy

Nov. 13, 2011 Rise Set
Actual Time 6:50 AM EST 4:27 PM EST
Civil Twilight 6:18 AM EST 4:59 PM EST
Nautical Twilight 5:43 AM EST 5:34 PM EST
Astronomical Twilight 5:08 AM EST 6:09 PM EST
Moon 6:28 PM EST (11/13) 9:26 AM EST (11/13)
Length of Visible Light 10h 40m
Length of Day
9h 36m
Waning Gibbous, 93% of the Moon is Illuminated
Nov 13
Waning Gibbous
Nov 18
Last Quarter
Nov 25
New
Dec 2
First Quarter
Dec 10
Full

Hourly Weather History & Observations

Time (EST) Temp. Windchill Dew Point Humidity Pressure Visibility Wind Dir Wind Speed Gust Speed Precip Events Conditions
12:00 AM 39.2 °F 33.0 °F 32.0 °F 75% 29.94 in 15.0 mi South 9.2 mph - N/A   Partly Cloudy
1:00 AM 41 °F - 34 °F 66% 29.94 in 15 mi SE 3.5 mph - -   Partly Cloudy
1:00 AM 41.0 °F 39.0 °F 33.8 °F 76% 29.94 in 15.0 mi SE 3.5 mph - N/A   Scattered Clouds
2:00 AM 39.2 °F 37.0 °F 32.0 °F 75% 29.95 in 15.0 mi SE 3.5 mph - N/A   Partly Cloudy
3:00 AM 39.2 °F 35.0 °F 32.0 °F 75% 29.95 in 15.0 mi SSE 5.8 mph - N/A   Clear
4:00 AM 35.6 °F 32.8 °F 30.2 °F 81% 29.95 in 15.0 mi SSE 3.5 mph - N/A   Mostly Cloudy
5:00 AM 37.4 °F 32.1 °F 30.2 °F 75% 29.96 in 15.0 mi SSE 6.9 mph - N/A   Overcast
6:00 AM 37.4 °F 32.1 °F 30.2 °F 75% 29.95 in 15.0 mi SE 6.9 mph - N/A   Mostly Cloudy
7:00 AM 40 °F - 32 °F 65% 29.94 in 28 mi ESE 6.9 mph - -   Overcast
7:00 AM 41.0 °F 37.1 °F 32.0 °F 70% 29.94 in 30.0 mi ESE 5.8 mph - N/A   Overcast
8:00 AM 42.8 °F 38.0 °F 33.8 °F 70% 29.94 in 30.0 mi SSE 8.1 mph - N/A   Overcast
9:00 AM 46.4 °F 40.4 °F 35.6 °F 66% 29.93 in 30.0 mi SSE 13.8 mph - N/A   Overcast
10:00 AM 50.0 °F - 35.6 °F 58% 29.92 in 30.0 mi SSE 8.1 mph - N/A   Overcast
11:00 AM 51.8 °F - 37.4 °F 58% 29.88 in 30.0 mi SE 9.2 mph - N/A   Mostly Cloudy
12:00 PM 51.8 °F - 37.4 °F 58% 29.84 in 30.0 mi SSE 10.4 mph - N/A   Overcast
1:00 PM 52 °F - 37 °F 45% 29.82 in 28 mi SSE 10.4 mph - -   Partly Cloudy
1:00 PM 51.8 °F - 37.4 °F 58% 29.82 in 30.0 mi SSE 10.4 mph - N/A   Mostly Cloudy
2:00 PM 53.6 °F - 37.4 °F 54% 29.79 in 30.0 mi SSE 9.2 mph - N/A   Mostly Cloudy
3:00 PM 53.6 °F - 37.4 °F 54% 29.77 in 30.0 mi SSE 10.4 mph - N/A   Mostly Cloudy
4:00 PM 53.6 °F - 37.4 °F 54% 29.76 in 15.0 mi SSE 6.9 mph - N/A   Mostly Cloudy
5:00 PM 53.6 °F - 37.4 °F 54% 29.75 in 15.0 mi South 9.2 mph - N/A   Mostly Cloudy
6:00 PM 53.6 °F - 37.4 °F 54% 29.75 in 15.0 mi SSE 8.1 mph - N/A   Mostly Cloudy
7:00 PM 53 °F - 36 °F 41% 29.74 in 15 mi SE 6.9 mph - -   Scattered Clouds
7:00 PM 51.8 °F - 35.6 °F 54% 29.74 in 15.0 mi SE 6.9 mph - N/A   Mostly Cloudy
8:00 PM 53.6 °F - 35.6 °F 51% 29.73 in 15.0 mi SSE 9.2 mph - N/A   Mostly Cloudy
9:00 PM 53.6 °F - 35.6 °F 51% 29.72 in 15.0 mi SSE 8.1 mph - N/A   Mostly Cloudy
10:00 PM 53.6 °F - 35.6 °F 51% 29.72 in 15.0 mi SSE 11.5 mph - N/A   Mostly Cloudy
11:00 PM 51.8 °F - 37.4 °F 58% 29.69 in 15.0 mi SE 6.9 mph - N/A   Overcast